Regional Weather Roundup
Issued by NWS

Home | Current Version | Previous Version | Graphics & Text | Print | Product List | Glossary On
Versions: 1 2 3 4 5 6 7 8 9 10 11 12 13 14 15 16 17 18 19 20 21 22 23 24 25 26 27 28 29 30 31 32 33 34 35 36 37 38 39 40 41 42 43 44 45 46 47 48 49 50
000
ASUS45 KBOU 311010
RWRCO

WEATHER ROUNDUP FOR COLORADO
NATIONAL WEATHER SERVICE DENVER/BOULDER CO
400 AM MDT FRI JUL 31 2015

NOTE: "FAIR" INDICATES FEW OR NO CLOUDS BELOW 12000 FEET WITH NO
SIGNIFICANT WEATHER AND/OR OBSTRUCTIONS TO VISIBILITY.

COZ001>005-013-030-031-311100-
...NORTHWEST COLORADO...

CITY           SKY/WX    TMP DP  RH WIND       PRES   REMARKS
CRAIG          CLEAR     44  31  60 SW3       30.37R
HAYDEN         CLEAR     54  28  37 SE14      30.38S
MEEKER         CLEAR     48  34  58 E3        30.38S
MOUNT WERNER   NOT AVBL
STEAMBOAT SPGS NOT AVBL
WALDEN         CLEAR     41  34  75 SE6       30.52S
$$

COZ006>008-011-311100-
...WEST CENTRAL VALLEYS...

CITY           SKY/WX    TMP DP  RH WIND       PRES   REMARKS
GRAND JUNCTION CLEAR     65  30  27 CALM      30.23R
MONTROSE       PTCLDY    64  35  34 SE6       30.33S
EAGLE          PTCLDY    52  34  50 CALM      30.44R
RIFLE          CLEAR     59  30  33 CALM      30.31S
DELTA          PTCLDY    61  34  36 S6        30.28S
NUCLA          PTCLDY    66  43  42 CALM      30.40S
$$

COZ017>023-064>068-311100-
...SOUTHWEST COLORADO...

CITY           SKY/WX    TMP DP  RH WIND       PRES   REMARKS
DURANGO        CLOUDY    60  58  92 CALM      30.42F
CORTEZ         CLOUDY    64  58  80 CALM      30.37F
PAGOSA SPRINGS CLOUDY    58  56  96 CALM      30.49F
TELLURIDE      NOT AVBL
WOLF CREEK PAS NOT AVBL
$$

COZ009-010-012-014-032>034-037-058>063-311100-
...CENTRAL COLORADO...

CITY           SKY/WX    TMP DP  RH WIND       PRES   REMARKS
ASPEN          CLEAR     58  42  55 SW9       30.47S
BUENA VISTA    MOCLDY    55  51  87 NW5       30.54S
COPPER MTN     NOT AVBL
BERTHOUD PASS  FAIR      43  32  65 SE13      30.85S
COTTONWOOD PAS MOCLDY    57  46  67 CALM      30.66S
GUNNISON       PTCLDY    55  43  62 N7        30.51S
KREMMLING      CLEAR     50  36  57 CALM      30.50R
LEADVILLE      CLEAR     46  43  89 NE6       30.65S
MONARCH PASS   MOCLDY    46  43  87 NE3       30.90S
SALIDA         PTCLDY    57  50  77 SW7       30.57F
SUNLIGHT       PTCLDY    54  36  50 CALM      30.72S
WILKERSON PASS CLEAR     48  43  81 W5        30.78S
$$

COZ069>075-311100-
...SAN LUIS VALLEY/SANGRE DE CRISTO MOUNTAINS...

CITY           SKY/WX    TMP DP  RH WIND       PRES   REMARKS
ALAMOSA        CLOUDY    54  51  90 E7        30.47S
LA VETA PASS   PTCLDY    50  43  76 MISG      30.65S
SAGUACHE       MOCLDY    52  50  93 CALM      30.51F
$$

COZ035-036-038>040-311100-
...NORTHERN COLORADO FRONT RANGE...

CITY           SKY/WX    TMP DP  RH WIND       PRES   REMARKS
DENVER INTL AP MOCLDY    65  55  70 W6        30.32S
DMNS CITY PARK   N/A     64  55  73 N1G9      30.32S
AURORA         PTCLDY    62  53  73 S8        30.35S
FRONT RANGE AP NOT AVBL
ERIE MUNI ARPT NOT AVBL
BOULDER MUN AP NOT AVBL
CENTENNIAL     PTCLDY    61  53  75 S7        30.36R
BROOMFIELD     PTCLDY    66  55  68 N9        30.35R
FORT COLLINS   PTCLDY    61  55  82 N6        30.32S
LONGMONT       NOT AVBL
$$

COZ041-046-047-076>085-087-088-311100-
...PIKES PEAK/PALMER DIVIDE AND SOUTHERN FOOTHILLS...

CITY           SKY/WX    TMP DP  RH WIND       PRES   REMARKS
COLO. SPRINGS  PTCLDY    58  54  86 N8        30.39F
A. F. ACADEMY  CLEAR     53  51  92 N8        30.40F
ELLICOTT       CLEAR    N/A N/A N/A E5        30.38F
FALCON         NOT AVBL
FORT CARSON    CLEAR     58  54  86 NW6       30.36F
LIMON          CLEAR     53  52  96 NE3       30.34F
MONUMENT HILL  CLEAR     54  54 100 S8        30.44S
TRINIDAD       PTCLDY    64  54  69 W7        30.36R
$$

COZ042>045-048>051-090-091-311100-
...NORTHEAST COLORADO...

CITY           SKY/WX    TMP DP  RH WIND       PRES   REMARKS
GREELEY ARPT   PTCLDY    61  55  82 N6        30.30S
AKRON          CLEAR     64  56  75 NE8       30.30R
BURLINGTON     CLEAR     61  57  87 CALM      30.29R
WRAY           CLEAR     58  58 100 NW8       30.26S
STERLING       NOT AVBL
HOLYOKE        NOT AVBL
FORT MORGAN    NOT AVBL
$$

COZ086-089-092>099-311100-
...SOUTHEAST COLORADO...

CITY           SKY/WX    TMP DP  RH WIND       PRES   REMARKS
PUEBLO         CLEAR     66  58  75 N6        30.30S
LA JUNTA       CLEAR     66  64  93 E6        30.27R
LAMAR          CLEAR     63  62  97 N3        30.23S FOG
SPRINGFIELD      N/A     64  63  96 S7        30.29F
$$



USA.gov is the U.S. government's official web portal to all federal, state and local government web resources and services.